TimeAKDT,TemperatureF,Dew PointF,Humidity,Sea Level PressureIn,VisibilityMPH,Wind Direction,Wind SpeedMPH,Gust SpeedMPH,PrecipitationIn,Events,Conditions,WindDirDegrees,DateUTC
12:53 AM,25.0,10.0,53,30.04,10.0,NNE,3.5,-,N/A,,Clear,20,2013-03-18 08:53:00
1:53 AM,25.0,10.9,55,30.03,10.0,Calm,Calm,-,N/A,,Clear,0,2013-03-18 09:53:00
2:53 AM,23.0,10.9,60,30.02,10.0,Calm,Calm,-,N/A,,Clear,0,2013-03-18 10:53:00
3:53 AM,19.9,10.9,68,30.00,10.0,Calm,Calm,-,N/A,,Clear,0,2013-03-18 11:53:00
4:53 AM,19.9,12.0,71,29.99,10.0,Calm,Calm,-,N/A,,Clear,0,2013-03-18 12:53:00
5:53 AM,19.0,10.9,71,29.98,10.0,Calm,Calm,-,N/A,,Clear,0,2013-03-18 13:53:00
6:53 AM,17.1,10.9,77,29.97,10.0,Calm,Calm,-,N/A,,Clear,0,2013-03-18 14:53:00
7:53 AM,17.1,10.0,74,29.97,10.0,Calm,Calm,-,N/A,,Clear,0,2013-03-18 15:53:00
8:53 AM,18.0,9.0,68,29.96,10.0,NNE,3.5,-,N/A,,Clear,30,2013-03-18 16:53:00
9:53 AM,25.0,12.0,58,29.96,10.0,Calm,Calm,-,N/A,,Clear,0,2013-03-18 17:53:00
10:53 AM,28.0,12.9,53,29.95,10.0,Calm,Calm,-,N/A,,Clear,0,2013-03-18 18:53:00
11:53 AM,28.9,12.0,49,29.95,10.0,East,4.6,-,N/A,,Clear,100,2013-03-18 19:53:00
12:53 PM,30.0,14.0,51,29.94,10.0,East,5.8,-,N/A,,Clear,100,2013-03-18 20:53:00
1:53 PM,30.9,14.0,50,29.94,10.0,SSW,4.6,-,N/A,,Clear,210,2013-03-18 21:53:00
2:53 PM,32.0,12.9,45,29.93,10.0,SW,5.8,-,N/A,,Clear,220,2013-03-18 22:53:00
3:53 PM,32.0,12.0,44,29.92,10.0,SW,5.8,-,N/A,,Clear,230,2013-03-18 23:53:00
4:53 PM,32.0,12.0,44,29.91,10.0,SSW,4.6,-,N/A,,Clear,200,2013-03-19 00:53:00
5:53 PM,33.1,9.0,37,29.91,10.0,NNW,6.9,-,N/A,,Clear,340,2013-03-19 01:53:00
6:53 PM,30.9,10.0,42,29.90,10.0,NNW,9.2,-,N/A,,Clear,340,2013-03-19 02:53:00
7:53 PM,30.0,10.0,43,29.90,10.0,NNW,8.1,-,N/A,,Clear,340,2013-03-19 03:53:00
8:53 PM,28.0,10.0,47,29.90,10.0,NNW,6.9,-,N/A,,Clear,330,2013-03-19 04:53:00
9:53 PM,28.0,7.0,41,29.89,10.0,North,8.1,-,N/A,,Clear,350,2013-03-19 05:53:00
10:53 PM,26.1,8.1,47,29.89,10.0,NNE,3.5,-,N/A,,Clear,20,2013-03-19 06:53:00
11:53 PM,23.0,8.1,53,29.89,10.0,Calm,Calm,-,N/A,,Clear,0,2013-03-19 07:53:00